TimeCST,TemperatureF,Dew PointF,Humidity,Sea Level PressureIn,VisibilityMPH,Wind Direction,Wind SpeedMPH,Gust SpeedMPH,PrecipitationIn,Events,Conditions,WindDirDegrees,DateUTC
12:15 AM,37.4,33.8,87,30.22,7.0,South,8.1,-,N/A,,Overcast,170,2012-12-01 06:15:00
12:35 AM,37.4,33.8,87,30.21,7.0,SSE,4.6,-,N/A,,Overcast,160,2012-12-01 06:35:00
12:55 AM,37.4,33.8,87,30.20,7.0,SSE,6.9,-,N/A,,Overcast,160,2012-12-01 06:55:00
1:15 AM,37.4,33.8,87,30.20,7.0,SSE,9.2,-,N/A,,Overcast,160,2012-12-01 07:15:00
1:35 AM,37.4,33.8,87,30.20,7.0,SSE,5.8,-,N/A,,Overcast,160,2012-12-01 07:35:00
1:55 AM,37.4,33.8,87,30.20,7.0,SSE,6.9,-,N/A,,Overcast,160,2012-12-01 07:55:00
2:15 AM,37.4,33.8,87,30.19,7.0,SSE,10.4,-,N/A,,Overcast,150,2012-12-01 08:15:00
2:55 AM,37.4,33.8,87,30.18,7.0,SSE,5.8,-,N/A,,Overcast,160,2012-12-01 08:55:00
3:15 AM,37.4,35.6,93,30.18,6.0,South,5.8,-,N/A,,Overcast,170,2012-12-01 09:15:00
3:35 AM,37.4,33.8,87,30.17,6.0,South,9.2,-,N/A,,Overcast,170,2012-12-01 09:35:00
3:55 AM,37.4,33.8,87,30.17,5.0,South,4.6,-,N/A,,Overcast,170,2012-12-01 09:55:00
4:15 AM,37.4,33.8,87,30.15,5.0,SSE,9.2,-,N/A,,Overcast,150,2012-12-01 10:15:00
4:35 AM,37.4,35.6,93,30.15,5.0,SSE,10.4,-,N/A,,Overcast,150,2012-12-01 10:35:00
5:15 AM,37.4,35.6,93,30.15,5.0,SSE,8.1,-,N/A,,Overcast,160,2012-12-01 11:15:00
6:15 AM,37.4,35.6,93,30.13,4.0,SSE,8.1,-,N/A,,Overcast,160,2012-12-01 12:15:00
6:35 AM,37.4,35.6,93,30.12,4.0,SSE,9.2,-,N/A,,Overcast,150,2012-12-01 12:35:00
6:55 AM,39.2,37.4,93,30.11,4.0,SSE,10.4,-,N/A,,Overcast,160,2012-12-01 12:55:00
7:15 AM,37.4,35.6,93,30.12,3.0,South,10.4,-,N/A,,Overcast,170,2012-12-01 13:15:00
7:35 AM,37.4,35.6,93,30.11,2.5,SSE,10.4,-,N/A,,Overcast,160,2012-12-01 13:35:00
7:55 AM,37.4,35.6,93,30.10,2.0,SSE,8.1,-,N/A,,Overcast,160,2012-12-01 13:55:00
8:15 AM,39.2,35.6,87,30.10,2.5,South,8.1,-,N/A,,Overcast,170,2012-12-01 14:15:00
8:35 AM,39.2,35.6,87,30.10,3.0,South,8.1,-,N/A,,Overcast,170,2012-12-01 14:35:00
9:15 AM,39.2,35.6,87,30.08,3.0,South,10.4,16.1,N/A,,Overcast,180,2012-12-01 15:15:00
9:35 AM,39.2,35.6,87,30.07,3.0,South,12.7,-,N/A,,Overcast,180,2012-12-01 15:35:00
9:55 AM,39.2,37.4,93,30.07,3.0,South,12.7,-,N/A,,Overcast,170,2012-12-01 15:55:00
10:15 AM,39.2,35.6,87,30.07,3.0,South,10.4,18.4,N/A,,Overcast,180,2012-12-01 16:15:00
10:35 AM,39.2,35.6,87,30.05,2.5,South,10.4,-,N/A,,Overcast,180,2012-12-01 16:35:00
10:55 AM,39.2,37.4,93,30.03,2.5,South,12.7,16.1,N/A,,Overcast,170,2012-12-01 16:55:00
11:15 AM,39.2,35.6,87,30.03,3.0,South,10.4,17.3,N/A,,Overcast,170,2012-12-01 17:15:00
11:35 AM,39.2,35.6,87,30.01,2.5,South,10.4,-,N/A,,Overcast,180,2012-12-01 17:35:00
11:55 AM,39.2,37.4,93,30.01,2.5,South,10.4,17.3,N/A,,Overcast,180,2012-12-01 17:55:00
12:15 PM,39.2,37.4,93,30.01,2.5,South,8.1,-,N/A,,Overcast,190,2012-12-01 18:15:00
12:35 PM,39.2,37.4,93,30.00,2.5,South,11.5,-,N/A,,Overcast,180,2012-12-01 18:35:00
12:55 PM,39.2,37.4,93,29.98,2.5,South,6.9,-,N/A,,Overcast,190,2012-12-01 18:55:00
1:15 PM,39.2,37.4,93,29.96,2.0,South,10.4,-,N/A,,Overcast,170,2012-12-01 19:15:00
1:35 PM,39.2,37.4,93,29.95,1.8,South,10.4,-,N/A,,Overcast,180,2012-12-01 19:35:00
1:55 PM,39.2,39.2,100,29.97,1.5,South,8.1,-,N/A,,Overcast,180,2012-12-01 19:55:00
2:15 PM,39.2,39.2,100,29.94,1.5,South,5.8,-,N/A,,Overcast,170,2012-12-01 20:15:00
2:35 PM,39.2,39.2,100,29.93,1.2,South,5.8,-,N/A,,Overcast,170,2012-12-01 20:35:00
2:55 PM,41.0,39.2,93,29.91,1.0,South,9.2,-,N/A,,Overcast,170,2012-12-01 20:55:00
3:15 PM,42.8,39.2,87,29.90,1.0,SSE,10.4,-,N/A,,Overcast,160,2012-12-01 21:15:00
3:35 PM,41.0,41.0,100,29.90,0.8,South,8.1,16.1,N/A,,Overcast,180,2012-12-01 21:35:00
3:55 PM,39.2,39.2,100,29.88,1.0,South,11.5,-,N/A,,Overcast,170,2012-12-01 21:55:00
4:15 PM,41.0,41.0,100,29.88,1.2,South,11.5,16.1,N/A,,Overcast,180,2012-12-01 22:15:00
4:35 PM,41.0,41.0,100,29.86,2.0,South,11.5,-,N/A,,Overcast,170,2012-12-01 22:35:00
4:55 PM,41.0,41.0,100,29.86,2.0,South,10.4,-,N/A,,Overcast,180,2012-12-01 22:55:00
5:15 PM,41.0,41.0,100,29.85,2.5,South,10.4,-,N/A,,Overcast,180,2012-12-01 23:15:00
5:55 PM,42.8,42.8,100,29.83,2.0,South,9.2,-,N/A,,Overcast,180,2012-12-01 23:55:00
6:15 PM,42.8,41.0,93,29.84,2.0,SSW,6.9,-,N/A,,Overcast,200,2012-12-02 00:15:00
6:35 PM,44.6,42.8,93,29.83,2.0,SSW,9.2,-,N/A,,Overcast,200,2012-12-02 00:35:00
6:55 PM,42.8,42.8,100,29.82,2.0,SSW,6.9,-,N/A,,Overcast,200,2012-12-02 00:55:00
7:15 PM,44.6,42.8,93,29.81,1.8,SSW,6.9,-,N/A,,Overcast,200,2012-12-02 01:15:00
7:35 PM,44.6,42.8,93,29.80,2.0,SSW,10.4,-,N/A,,Overcast,200,2012-12-02 01:35:00
7:55 PM,42.8,42.8,100,29.80,1.8,SW,10.4,-,N/A,,Overcast,220,2012-12-02 01:55:00
8:15 PM,44.6,44.6,100,29.81,2.0,SW,9.2,-,N/A,,Overcast,220,2012-12-02 02:15:00
8:35 PM,44.6,44.6,100,29.81,1.8,SW,9.2,-,N/A,,Overcast,230,2012-12-02 02:35:00
8:55 PM,46.4,44.6,93,29.80,1.8,SW,9.2,-,N/A,,Overcast,230,2012-12-02 02:55:00
9:15 PM,44.6,42.8,93,29.80,1.0,WSW,4.6,-,N/A,,Overcast,240,2012-12-02 03:15:00
9:35 PM,44.6,44.6,100,29.80,0.5,West,4.6,-,N/A,,Overcast,260,2012-12-02 03:35:00
9:55 PM,44.6,44.6,100,29.79,0.5,West,3.5,-,N/A,,Overcast,260,2012-12-02 03:55:00
10:15 PM,44.6,42.8,93,29.79,0.5,West,3.5,-,N/A,,Overcast,260,2012-12-02 04:15:00
10:35 PM,44.6,42.8,93,29.79,0.5,West,3.5,-,N/A,,Overcast,280,2012-12-02 04:35:00
10:55 PM,44.6,44.6,100,29.80,0.5,West,4.6,-,N/A,,Overcast,280,2012-12-02 04:55:00
11:15 PM,44.6,44.6,100,29.79,0.5,Calm,Calm,-,N/A,,Overcast,0,2012-12-02 05:15:00
11:35 PM,44.6,44.6,100,29.79,1.0,West,3.5,-,N/A,,Overcast,260,2012-12-02 05:35:00
11:55 PM,44.6,44.6,100,29.79,1.2,Calm,Calm,-,N/A,,Overcast,0,2012-12-02 05:55:00